Voltar ao catálogo

COSMOS 1275 DEB

AtivoPO
NORAD 42178·DEBRIS·🇷🇺 Russia

Lançado Jun 4, 1981 de Plesetsk Cosmodrome

Loading…

Próximas Passagens (próximas 24 horas)

TLE

AtualizadoSource: Space-Track

Época: Sep 13, 2026, 13:10 UTC

1 42178U 81053SS  26256.54896742  .00002118  00000-0  81272-3 0  9990
2 42178  82.9420 352.9139 0010559  60.2346 299.9890 14.30099056643581

Acompanhe COSMOS 1275 DEB em tempo real com AllMySat

Download on the App Store